Theta_e
330 319 315 315 311 308 308 297 290 286 289 284 283 285 285 292 296 296 294 296 295 306 310 319 313 318 309 312 313 319 322 312 309 305 300 311 342 344 345 345 351 352 351 353 354 354 353 354 354 353 353 353 352 352 351 351 351 350 350 349 349 348 349 348 349 348 348 348 348 348 347 347 346 346 346 346 346 346 345 345 345 345 345 346 346 345 347 347 346 347 348 348 348 348 348 347 348
315 310 313 313 311 308 303 291 285 287 282 280 285 285 287 290 295 292 293 296 295 318 320 325 327 327 327 327 327 325 319 329 329 325 332 343 345 344 346 350 351 351 352 353 354 353 352 353 353 353 353 353 352 352 351 351 351 351 350 350 349 349 348 349 348 348 348 349 349 348 347 347 347 347 347 346 346 345 345 345 345 345 345 345 345 346 347 347 347 347 347 348 348 347 348 347 347
315 309 310 310 308 305 301 295 289 281 284 280 282 287 291 292 292 293 295 296 296 316 318 322 323 323 323 323 313 311 305 329 335 337 337 344 338 339 347 351 352 352 353 353 353 352 352 352 354 353 353 352 352 352 352 351 351 349 350 349 349 349 349 348 348 349 349 349 348 348 348 347 348 347 346 346 346 346 345 345 344 345 345 345 345 347 347 346 347 347 347 347 347 347 347 344 343
310 310 305 304 303 296 295 290 283 283 282 279 282 287 289 291 292 295 296 296 295 302 304 319 321 325 320 316 317 328 325 327 334 336 336 339 336 344 348 351 353 353 353 353 353 352 351 354 354 354 353 353 352 353 352 351 350 350 350 349 349 349 348 348 349 348 348 348 348 348 348 348 347 347 346 347 346 346 346 345 345 345 345 346 347 346 346 346 346 346 347 347 347 347 344 344 345
310 312 310 302 298 297 294 291 285 282 284 283 281 285 292 292 294 293 295 295 297 298 304 320 319 327 327 323 325 316 314 331 333 338 336 341 347 348 349 351 352 352 352 353 353 352 351 355 354 353 353 353 352 352 351 350 350 350 350 350 348 349 349 349 349 348 348 348 348 348 348 347 347 347 346 346 347 347 346 346 346 346 345 346 346 346 346 346 347 347 347 347 347 345 344 346 346
304 306 309 309 303 298 294 290 289 286 287 287 287 290 291 293 294 296 296 298 297 296 307 318 318 321 324 327 330 323 330 323 333 336 337 338 347 349 350 352 351 351 352 352 353 351 351 355 353 353 353 352 352 351 351 351 350 350 349 349 349 349 349 349 349 349 349 348 348 348 347 347 347 346 347 346 346 347 347 347 347 346 346 347 346 346 347 346 346 346 347 347 345 344 346 346 345
304 304 301 302 298 296 288 284 284 285 293 292 290 293 296 296 296 297 297 298 299 319 323 322 326 324 321 323 329 333 336 337 335 335 340 345 348 349 351 351 350 350 351 352 352 352 352 354 353 353 353 352 351 351 351 351 351 349 349 349 349 349 349 349 349 349 349 348 348 347 347 347 346 347 348 348 347 347 347 347 346 346 347 347 347 346 346 347 347 347 346 345 344 345 345 345 345
310 305 300 292 290 293 289 286 287 287 290 295 295 296 298 299 299 298 298 297 296 306 322 325 328 320 319 331 320 331 336 337 338 343 345 346 347 348 350 350 348 349 350 351 352 352 354 353 353 352 353 352 352 352 351 351 351 350 350 349 349 349 349 350 350 350 349 348 348 347 347 346 346 347 347 347 348 347 347 347 347 348 347 346 346 346 347 347 347 347 346 345 345 345 344 345 344
304 299 300 293 291 287 283 287 287 290 292 294 297 300 308 303 302 300 298 297 296 310 320 325 325 314 319 324 322 331 332 337 341 344 345 346 346 347 348 348 348 348 350 351 352 352 351 353 352 353 353 352 353 352 351 351 351 350 350 350 350 350 351 350 349 350 349 348 348 348 347 346 346 346 346 346 347 347 347 348 348 348 347 347 347 347 347 347 347 346 346 346 346 345 345 345 344
301 299 294 291 286 288 283 285 287 288 290 293 294 296 297 297 297 297 296 295 297 319 323 327 324 314 324 321 323 327 328 336 338 340 343 345 346 347 347 349 349 348 349 350 351 351 351 354 352 352 351 353 353 352 351 351 351 351 351 350 351 351 351 351 350 350 350 349 349 348 347 346 346 346 347 347 347 348 348 349 348 347 347 347 347 347 347 347 347 347 347 346 346 344 345 345 344
296 296 294 293 286 285 286 282 285 291 292 295 296 298 299 299 297 296 295 295 316 320 325 326 323 322 325 324 326 335 337 338 337 335 341 343 346 347 347 350 350 349 349 350 350 350 351 351 354 352 352 352 352 351 351 351 351 351 351 351 351 351 351 351 351 350 350 348 348 348 347 347 347 347 347 348 348 348 348 349 348 347 347 347 347 347 347 347 348 347 347 346 345 345 345 345 344
295 295 292 284 283 284 283 285 288 292 294 293 295 298 296 298 296 295 293 304 317 322 322 324 320 327 322 323 322 330 335 334 334 337 339 342 343 346 348 349 350 349 350 350 351 350 350 351 351 353 353 352 352 351 351 351 351 351 351 351 351 351 351 351 351 351 349 349 349 349 348 347 348 348 348 348 348 348 349 349 348 347 346 346 347 347 346 346 347 346 346 346 345 345 345 345 344
294 290 287 286 284 287 288 288 289 295 292 292 294 296 295 294 294 293 298 316 320 319 318 323 328 326 316 322 326 333 332 333 335 337 339 342 344 347 348 349 350 350 350 351 349 349 348 349 350 351 351 353 352 351 351 351 351 351 351 351 351 351 351 351 351 350 350 349 349 348 348 347 347 347 348 348 348 349 348 347 347 346 346 346 347 346 346 346 346 346 346 345 346 345 345 346 345
295 293 290 288 286 285 286 287 286 289 287 290 292 293 294 298 296 295 318 316 317 315 323 330 330 328 323 325 323 325 329 334 337 338 341 342 345 347 347 348 349 349 350 349 348 348 348 348 350 350 349 349 349 351 352 351 351 351 351 351 351 350 351 351 351 350 350 350 350 349 348 347 347 347 347 348 349 348 348 347 346 346 346 346 347 346 346 346 346 346 346 346 345 345 345 345 345
300 293 289 287 286 287 286 290 287 286 288 290 293 294 295 302 298 313 319 318 320 328 332 333 332 322 316 322 318 326 330 334 337 341 342 343 345 346 347 347 348 349 349 349 349 348 348 349 349 349 349 349 348 347 348 350 351 351 351 351 351 350 350 350 351 350 350 349 349 349 349 348 348 348 348 349 348 348 348 347 346 346 346 346 346 346 346 346 346 346 346 346 345 345 345 345 345
299 290 288 290 286 286 288 289 287 287 289 291 293 292 294 305 301 310 312 321 324 329 329 324 331 318 325 324 326 330 332 335 339 341 342 342 343 344 345 346 346 347 348 348 349 349 349 348 348 348 348 349 348 346 346 347 350 350 350 350 351 350 351 351 351 351 350 350 350 350 349 349 349 348 350 348 348 347 346 345 346 346 346 346 346 346 346 346 346 346 346 344 343 344 344 343 343
295 294 291 282 286 286 286 288 287 285 287 289 291 294 293 297 300 324 329 328 325 324 327 329 328 332 328 329 332 333 335 338 340 340 340 339 340 339 342 343 344 343 345 346 348 348 348 348 347 347 348 348 348 346 345 346 349 350 350 350 350 350 350 350 351 351 350 349 349 349 347 345 346 347 347 346 348 346 346 347 346 346 346 346 346 346 346 346 346 345 344 342 342 343 343 342 342
296 291 284 285 284 286 288 289 288 292 292 292 294 293 293 297 306 317 325 325 325 325 326 329 332 330 331 332 334 335 337 338 339 338 337 336 337 336 336 339 341 340 343 343 346 348 347 348 347 347 347 347 347 347 346 346 348 348 345 346 348 348 349 349 348 347 348 345 348 347 344 346 343 343 345 347 345 346 346 346 346 346 345 345 345 344 345 345 346 345 344 342 341 340 340 338 341
293 286 286 287 285 289 292 290 291 292 292 292 293 293 293 295 304 305 318 317 318 319 324 328 326 329 331 332 333 335 336 337 337 337 335 334 335 334 334 337 338 340 341 343 345 347 347 347 347 346 347 347 346 346 346 346 344 344 344 344 346 347 348 347 344 345 342 343 344 344 345 343 342 343 344 345 345 346 346 346 346 345 345 345 344 344 344 345 345 344 342 342 339 337 333 333 336
294 288 286 287 290 290 291 292 293 292 293 295 294 293 293 294 296 302 314 315 316 317 318 321 325 326 328 330 332 334 335 336 337 336 334 334 334 335 335 336 337 339 340 342 343 346 347 346 346 346 346 346 345 345 346 345 345 345 345 345 343 342 343 343 342 341 342 343 343 342 342 343 342 341 348 348 347 345 345 346 346 345 346 345 344 340 343 344 344 342 340 338 335 334 332 333 334
293 293 287 288 289 291 294 293 294 295 294 294 293 293 294 294 294 315 315 312 310 311 320 320 322 327 328 330 331 333 334 335 335 335 334 334 334 335 335 336 337 337 340 343 343 344 345 345 345 345 346 346 345 345 345 345 345 346 345 345 344 342 341 340 340 340 340 341 341 341 343 344 342 343 343 342 341 341 341 340 341 338 335 333 338 330 330 330 329 328 328 329 329 331 331 332 333
292 294 291 290 290 291 295 294 293 293 293 293 290 292 296 295 310 315 311 303 302 311 319 322 326 330 329 329 331 333 333 333 334 334 333 333 332 332 333 334 336 337 340 340 341 343 344 345 345 345 345 345 344 344 345 345 345 344 344 345 345 343 341 339 338 339 339 339 339 341 343 341 339 340 341 342 341 340 340 338 336 334 333 332 332 329 328 327 326 327 327 327 328 329 331 331 332
291 290 290 290 292 293 294 295 294 294 293 292 292 294 295 294 303 310 307 301 303 309 325 326 331 332 332 332 332 331 332 333 333 333 333 332 332 331 331 333 334 335 339 339 341 342 343 343 344 344 344 344 344 345 345 345 344 345 345 345 344 343 342 340 339 338 338 338 339 341 340 339 338 339 341 341 340 339 339 337 335 335 334 333 331 328 327 326 325 325 326 326 325 328 330 331 330
294 292 290 294 291 293 294 295 294 292 293 294 294 293 294 293 295 295 298 299 300 311 329 331 332 333 332 330 331 331 332 333 333 334 333 332 331 330 330 331 332 334 337 338 340 340 341 342 343 344 343 344 343 344 344 344 344 344 345 344 343 344 342 340 339 339 339 339 339 340 341 338 338 339 340 340 340 338 337 337 335 335 334 333 331 328 327 325 324 324 326 325 326 328 330 331 330
293 292 292 293 294 293 294 293 293 292 292 293 293 293 295 293 294 293 295 302 325 328 330 331 332 332 331 331 331 332 332 333 333 334 334 332 331 332 331 331 331 332 335 337 339 339 340 341 342 342 342 343 343 344 343 343 344 344 344 342 342 345 342 341 340 339 338 339 337 337 338 336 337 338 339 339 340 339 337 336 337 335 333 333 331 328 328 326 325 323 325 325 325 327 330 330 330
292 293 293 294 295 294 294 292 292 292 293 294 293 293 294 292 291 294 294 321 327 330 330 331 331 330 330 330 331 332 332 333 334 334 333 331 332 332 331 330 330 331 334 337 338 339 340 341 341 341 342 342 342 343 342 342 343 343 342 342 342 342 340 341 340 338 337 337 337 338 337 335 335 337 339 339 338 338 337 337 337 335 333 331 331 330 329 327 327 325 325 325 326 327 329 331 330
293 294 295 294 295 293 292 292 291 292 292 292 294 291 292 292 295 289 311 323 329 329 329 330 330 329 330 330 331 332 333 333 334 335 332 330 332 331 330 330 330 330 333 336 337 338 338 340 340 341 341 342 342 342 341 341 342 342 341 341 342 340 340 340 340 338 337 337 337 337 337 336 335 336 338 338 338 337 337 337 336 336 334 332 331 330 329 327 325 325 325 325 325 326 328 330 329
292 292 293 291 291 290 292 290 291 292 293 290 293 292 292 293 293 289 303 325 329 327 328 329 329 330 330 331 331 332 333 334 335 335 332 330 330 330 329 330 329 329 332 334 336 337 337 338 339 340 340 341 341 341 341 341 341 341 341 341 341 339 340 340 339 338 338 337 337 336 336 336 336 335 337 337 337 336 336 336 336 335 335 331 331 331 330 329 326 326 327 326 326 327 327 328 329
294 292 291 289 288 292 290 291 291 291 293 291 292 293 290 291 291 291 304 325 326 327 327 328 329 330 330 331 331 331 332 333 335 334 333 332 331 330 329 331 330 330 331 333 335 336 336 337 337 338 339 340 340 340 340 340 340 340 340 340 338 338 339 338 338 338 338 338 337 335 335 335 336 335 335 336 337 336 335 335 335 335 334 332 331 332 331 329 330 329 327 327 327 328 329 328 330
294 291 289 289 284 286 289 290 291 291 293 291 294 285 283 288 290 294 310 324 325 325 326 328 328 330 330 331 331 331 332 332 332 333 333 332 331 331 329 330 331 331 331 332 333 334 336 335 337 337 337 338 340 340 340 339 339 339 339 339 337 334 336 336 337 337 338 337 336 335 335 336 335 335 334 335 336 334 334 334 333 332 331 331 331 331 331 329 328 327 326 328 330 327 327 327 328
289 290 287 284 285 284 288 289 291 291 293 291 295 287 285 288 289 291 298 324 324 323 326 327 328 329 330 331 331 331 332 332 332 332 332 331 331 331 330 330 332 332 332 332 333 334 335 335 335 334 336 337 339 339 339 338 338 338 337 336 334 333 334 335 335 337 336 335 334 334 334 335 335 334 335 334 333 333 332 331 331 332 331 330 331 331 331 329 328 326 327 326 325 326 327 328 328
287 286 282 281 284 283 286 290 290 292 293 293 292 286 287 289 290 290 307 324 324 322 324 326 327 329 330 330 331 331 331 331 330 329 329 329 330 330 330 330 332 332 332 333 333 334 334 334 335 333 335 336 338 338 338 337 338 336 335 336 333 333 333 334 335 335 336 335 335 334 334 335 335 334 334 334 333 332 332 332 331 331 331 331 331 331 331 329 327 326 327 327 325 325 326 326 328
282 284 281 285 283 281 286 293 289 291 292 292 292 284 284 290 291 292 309 322 322 321 322 323 325 327 329 330 330 331 331 330 330 329 328 327 328 329 330 331 333 333 333 333 333 333 333 334 335 333 333 335 336 337 336 336 336 335 334 335 333 333 333 333 334 334 334 335 335 334 334 335 334 334 334 334 333 332 332 330 330 330 332 331 331 331 330 329 328 327 326 328 327 325 326 326 327
282 282 283 282 284 284 284 286 291 290 292 290 290 289 288 291 291 298 312 321 320 318 320 321 323 326 328 330 330 331 331 330 329 329 327 327 328 329 331 333 333 333 333 333 334 333 333 333 334 334 334 336 335 335 334 334 335 334 334 334 334 332 333 334 335 335 334 334 334 334 333 334 334 333 333 333 333 333 332 330 329 331 332 331 330 330 328 328 328 327 325 326 327 327 326 326 326
280 283 282 285 281 285 285 285 290 291 289 291 289 289 289 289 290 297 312 320 320 319 319 321 322 323 326 329 330 331 331 330 330 328 327 328 328 329 331 332 332 333 333 333 333 333 331 333 333 334 335 335 334 333 333 333 334 333 333 333 332 332 333 335 335 335 334 335 334 333 333 334 335 333 333 333 332 333 331 330 330 331 332 330 330 328 327 327 327 326 327 326 327 327 327 328 328
284 284 282 283 283 283 285 286 287 292 290 289 287 288 290 289 289 291 294 305 317 316 315 315 318 320 324 327 329 330 330 330 330 328 328 328 328 328 330 332 332 331 331 331 332 333 334 334 333 333 333 334 334 332 332 332 332 331 330 331 331 331 333 334 335 335 335 335 335 334 334 334 335 334 332 332 332 332 330 330 330 331 331 330 329 327 327 327 326 326 326 326 326 327 329 330 331
286 285 283 284 284 283 285 287 290 291 290 286 287 288 288 289 289 288 291 296 299 308 311 314 316 319 322 325 327 329 329 328 327 327 326 325 324 326 329 331 331 332 332 332 333 333 334 333 331 330 331 332 332 331 330 330 329 330 330 330 329 330 332 333 334 336 336 335 336 336 335 335 334 334 333 332 331 334 331 331 330 331 331 329 329 328 328 327 327 327 327 327 326 325 327 330 331
286 284 284 283 284 284 286 289 289 292 292 286 287 287 287 288 289 293 298 302 302 306 309 311 315 318 319 319 322 324 325 323 328 327 322 323 324 325 329 331 332 330 332 332 332 333 333 333 331 330 330 331 331 331 331 331 331 331 330 330 330 331 331 332 332 335 336 336 333 333 334 333 334 333 333 332 332 332 331 331 330 331 330 328 328 328 328 329 327 327 327 325 327 326 325 329 330
285 285 283 284 282 284 287 289 289 292 290 287 285 287 287 290 293 297 300 296 297 302 307 310 312 313 314 316 318 319 322 322 324 326 323 324 326 327 330 331 332 332 332 333 333 333 332 331 331 330 329 330 330 331 331 331 331 332 332 331 331 331 334 334 335 336 337 333 332 333 333 333 333 332 332 332 332 332 331 331 330 331 330 329 328 327 328 327 326 326 326 325 323 326 327 329 329
284 283 283 282 283 285 282 286 288 291 291 289 286 286 288 290 291 297 300 304 302 309 306 307 309 311 313 315 316 317 320 320 321 322 323 327 329 330 330 331 332 333 332 333 333 332 332 331 330 329 329 329 329 330 331 331 332 331 332 332 332 332 331 334 335 336 333 331 330 332 332 333 333 333 332 332 332 332 331 330 330 330 329 330 329 327 327 326 326 326 325 325 326 323 325 325 327
285 284 281 282 285 284 285 284 289 289 291 289 286 284 282 290 294 296 300 305 309 310 310 312 312 308 312 313 315 317 318 319 319 321 323 327 329 329 330 331 333 332 332 332 333 332 331 331 330 329 329 328 328 329 330 330 331 329 330 331 332 332 333 333 332 332 331 331 331 330 331 333 332 332 332 332 333 331 330 331 331 331 329 329 329 328 327 326 326 326 326 325 325 324 323 325 326
284 285 285 284 283 285 285 287 287 283 283 287 285 276 283 286 294 295 299 307 308 310 310 311 312 311 309 311 311 313 315 316 320 321 323 326 330 331 331 332 332 332 332 333 333 333 332 330 329 327 326 326 327 328 329 329 329 329 328 328 327 327 327 328 328 329 329 329 329 331 332 333 332 331 332 332 333 331 330 331 331 330 329 329 329 329 328 327 326 325 326 326 325 326 325 324 324
282 284 287 286 286 286 286 286 287 281 281 288 287 279 278 282 295 295 298 305 306 309 310 311 313 314 313 312 313 313 314 317 322 324 325 326 329 330 330 331 332 331 331 330 329 328 327 327 327 326 326 326 327 327 328 328 327 328 329 328 328 328 327 329 331 332 332 332 333 332 332 332 331 331 331 332 332 332 331 329 329 330 330 329 330 329 327 326 326 326 327 326 325 325 326 323 323
280 284 287 287 286 286 285 287 285 282 285 287 284 281 279 282 290 295 298 304 305 307 309 310 312 314 316 317 318 318 319 322 324 325 327 329 329 329 329 324 323 323 325 325 326 327 327 327 327 326 325 326 326 327 327 327 327 327 326 325 326 326 327 327 329 329 330 332 332 332 330 330 331 331 331 332 332 331 330 329 329 329 329 329 330 329 328 327 326 327 327 327 326 326 325 324 323
282 286 288 287 288 286 286 287 283 283 284 282 280 285 281 279 286 295 302 302 304 306 308 310 312 314 316 317 318 319 321 322 324 325 326 328 328 325 321 319 320 321 324 326 326 327 327 328 328 326 326 325 325 324 324 325 327 327 326 325 325 324 324 325 329 331 331 332 330 330 330 330 331 331 332 331 331 331 331 329 329 329 329 329 330 329 329 328 327 326 326 325 325 325 325 325 325
286 288 289 288 287 286 286 284 284 281 280 276 279 282 280 279 284 296 299 300 301 305 308 310 312 312 313 314 317 319 320 321 322 323 324 325 324 323 322 320 320 320 321 323 325 326 326 327 327 328 328 327 327 326 326 326 326 328 326 325 325 325 326 327 330 330 331 331 330 329 329 330 330 330 330 331 331 331 330 329 329 329 329 329 330 329 329 328 327 326 326 326 326 325 325 325 325
289 289 287 285 284 282 283 281 280 281 277 276 279 283 280 278 287 295 297 298 302 307 308 310 311 313 313 314 315 316 317 318 319 321 322 322 323 323 320 319 319 321 321 322 322 323 324 325 325 325 326 327 327 327 327 327 326 327 327 325 324 324 326 327 328 329 330 330 329 329 329 329 329 329 329 330 331 331 330 330 329 328 329 330 330 329 328 328 326 327 327 327 326 325 325 325 325
288 285 283 284 283 280 279 277 277 275 272 277 278 282 282 279 284 295 303 308 308 308 306 307 309 311 312 313 315 315 316 317 318 318 319 320 320 321 320 318 318 318 319 320 320 321 323 324 324 324 324 325 325 327 327 327 327 327 326 324 323 323 325 327 328 328 329 329 330 329 329 328 327 329 329 328 329 330 330 330 329 329 328 329 329 329 328 329 328 327 327 326 326 326 326 325 324
287 285 286 282 276 274 274 277 276 274 276 282 282 285 284 283 287 300 304 305 307 308 308 309 310 311 312 313 314 315 316 316 316 317 317 318 318 318 318 317 317 316 317 317 318 319 321 323 324 324 324 324 324 326 327 327 326 325 324 324 324 325 324 326 327 327 328 329 330 329 328 327 327 326 327 327 328 329 330 329 329 328 328 328 329 329 328 328 327 327 327 326 326 326 325 325 324
285 285 281 280 274 273 268 271 270 275 279 280 282 282 281 287 295 302 303 306 308 310 310 311 312 312 312 313 313 313 313 314 314 315 315 316 317 318 318 318 318 317 317 317 318 318 319 320 320 322 323 324 325 325 327 326 325 324 324 324 324 325 324 324 326 326 327 328 330 329 328 328 327 327 326 327 329 329 329 329 329 329 329 328 328 329 328 328 327 327 326 326 326 326 326 325 325
287 285 287 282 276 273 269 273 270 275 277 279 282 282 279 287 292 304 306 308 309 312 312 313 312 312 311 312 312 311 311 311 312 312 312 313 314 315 316 319 319 319 319 318 318 319 320 319 320 320 321 324 325 325 325 324 324 323 324 324 324 324 324 325 325 326 326 328 329 329 329 328 327 327 327 327 328 328 328 328 328 328 328 328 328 328 329 328 328 327 327 326 326 326 326 325 324
285 283 286 282 282 278 276 275 277 276 278 277 282 280 287 289 301 306 308 309 310 311 311 310 309 310 310 309 309 309 309 309 310 310 310 311 312 313 314 315 318 319 320 320 319 318 318 320 320 320 320 321 322 322 324 324 324 323 322 322 323 323 324 325 325 324 325 327 328 328 328 327 326 326 326 327 327 328 327 327 327 327 327 328 328 328 328 328 327 327 326 326 325 326 325 324 324
285 285 281 283 286 284 275 275 278 273 275 274 281 291 295 300 304 305 307 307 308 309 309 308 308 307 307 306 306 307 307 307 308 308 308 309 309 311 312 313 314 316 317 318 320 320 320 320 321 321 321 320 320 321 322 322 323 321 322 323 323 323 324 324 324 324 325 325 326 326 327 327 326 325 325 327 326 327 327 327 327 326 325 327 327 328 328 328 327 327 326 325 325 325 325 324 323
285 281 285 287 289 287 282 276 270 267 270 274 284 287 290 291 287 304 304 304 306 306 306 306 306 305 304 304 304 304 304 305 306 306 307 307 307 308 309 311 312 313 314 316 317 319 320 320 319 319 319 319 320 319 320 321 321 320 321 323 323 324 324 325 324 325 324 324 324 324 324 324 324 325 326 326 326 326 326 329 327 326 325 325 326 327 328 328 327 326 326 326 326 325 324 322 323
291 288 290 287 280 280 280 276 270 270 269 274 284 288 289 287 288 299 300 302 303 304 305 303 302 302 301 302 302 302 303 302 302 303 304 305 305 306 307 308 310 312 313 314 315 316 317 317 318 318 318 320 321 320 320 321 322 322 322 322 323 324 324 325 326 326 324 324 323 323 324 324 324 325 326 325 325 325 325 326 325 324 324 324 325 325 326 326 326 325 325 324 324 325 324 323 322
289 290 288 287 283 279 278 278 278 275 266 273 280 288 284 289 290 299 301 304 304 303 302 301 300 299 299 299 300 300 300 301 301 302 303 303 304 305 306 307 308 309 310 311 312 313 314 315 316 317 318 320 321 322 323 322 322 322 323 324 324 324 324 325 326 325 324 324 324 323 324 323 323 324 325 325 324 324 324 324 323 324 323 323 323 324 325 326 325 325 324 324 324 324 324 323 322
284 284 283 286 283 285 284 281 279 278 269 266 275 277 283 286 292 299 303 304 304 303 301 299 299 299 299 299 298 299 299 299 300 301 302 302 303 304 305 306 307 308 308 309 310 311 312 313 314 315 315 317 318 320 321 321 322 323 323 324 324 324 323 325 325 325 324 324 324 324 324 324 323 323 323 323 323 324 324 323 322 323 323 323 323 323 323 324 324 323 324 324 323 324 324 322 323
287 286 284 284 282 282 279 276 280 278 276 269 275 272 278 286 301 304 306 305 304 304 300 298 297 297 297 298 298 298 298 299 299 300 301 302 303 303 304 304 304 305 305 306 308 309 311 311 312 313 314 315 316 317 319 321 322 323 324 323 324 325 325 325 324 323 323 324 324 324 324 324 323 323 323 323 323 323 323 323 323 323 323 323 323 323 322 323 323 322 322 323 324 324 323 322 322
Wind_Speed
1 2 1 0 1 1 1 5 1 2 2 4 2 1 4 2 3 5 5 3 1 3 2 2 3 3 2 3 5 4 2 4 3 8 4 1 2 4 9 7 10 11 11 10 10 10 11 14 16 17 17 17 17 17 16 17 17 19 19 19 19 19 18 19 19 18 18 18 19 19 20 20 21 20 20 20 20 19 19 19 18 19 19 19 19 18 18 17 17 17 17 17 17 17 17 17 17
1 1 1 1 1 1 1 1 3 2 5 2 7 2 5 1 1 5 5 0 2 2 1 3 7 9 12 11 8 3 1 1 2 2 3 1 3 5 8 10 11 13 10 9 9 9 9 11 16 16 17 18 18 17 16 16 16 17 18 19 19 18 18 19 19 19 18 18 19 19 19 20 20 20 20 20 20 19 17 17 18 19 19 19 19 19 17 17 17 17 17 16 16 16 16 16 14
1 1 1 2 2 3 1 3 2 1 2 3 7 7 2 1 5 3 4 4 3 1 1 3 5 5 4 4 6 2 1 1 0 2 2 1 6 1 6 10 11 10 11 8 8 9 8 10 15 15 16 17 18 17 17 17 16 17 17 18 18 18 17 18 17 18 17 17 19 19 18 19 18 19 19 20 20 19 16 15 18 18 19 19 18 19 18 17 17 16 16 15 15 15 14 14 13
2 1 2 3 1 3 1 3 4 7 2 6 5 6 4 4 4 4 4 5 4 2 2 2 3 2 4 3 2 2 2 2 1 2 1 1 1 4 6 9 9 8 8 8 9 8 7 13 16 16 16 16 17 17 17 16 16 16 16 16 17 17 17 17 17 16 17 17 18 19 18 18 18 18 20 19 19 18 17 17 16 18 17 16 16 17 17 16 16 16 15 14 14 14 14 14 13
0 1 1 2 3 1 2 1 3 4 4 5 2 4 4 4 5 3 2 6 6 5 2 0 2 4 1 4 1 1 2 1 1 3 1 2 2 7 7 8 8 9 8 8 8 8 8 17 15 15 15 17 17 17 17 17 16 16 16 15 16 17 17 17 17 16 17 17 17 18 18 17 18 18 18 19 17 17 18 17 16 16 16 15 14 15 15 14 15 15 14 14 14 14 14 13 12
2 1 2 1 1 2 4 1 0 4 7 4 1 5 4 4 1 0 4 8 6 2 4 1 3 4 1 2 1 1 1 2 2 1 1 1 7 9 8 7 9 9 8 7 7 7 8 16 15 15 15 17 17 18 17 17 16 15 15 15 16 15 16 16 16 16 16 17 17 18 18 16 16 18 17 18 17 18 17 16 16 16 17 16 16 15 15 15 15 14 14 13 14 14 14 13 12
0 3 3 3 1 4 4 2 3 4 9 8 4 5 5 1 3 3 4 7 2 2 0 2 3 3 4 1 0 1 4 1 1 1 2 5 9 9 9 8 9 10 9 7 7 7 10 15 14 14 15 17 17 17 17 17 16 15 16 15 16 15 15 15 15 16 15 15 16 17 16 17 16 17 18 17 17 16 15 15 16 15 15 15 14 14 15 15 15 13 13 14 14 14 13 13 13
1 2 1 2 1 1 0 1 3 5 5 7 3 5 9 7 2 2 1 3 5 2 2 2 0 4 2 3 2 1 8 6 2 5 9 9 9 10 9 9 10 10 9 8 7 7 14 15 15 14 15 16 18 18 17 17 16 15 15 15 14 14 15 15 14 13 13 14 15 15 16 15 16 17 17 15 14 14 14 14 15 14 14 14 14 14 14 14 14 14 14 14 14 14 13 14 14
2 4 0 4 1 2 1 2 4 3 7 4 9 8 12 9 5 3 2 3 3 3 3 2 1 2 3 1 1 1 2 5 6 6 8 10 10 9 8 9 10 10 10 8 8 8 9 14 14 15 15 16 17 18 16 16 15 15 15 15 14 13 14 15 14 12 12 12 14 15 16 15 14 15 15 14 13 13 14 14 13 13 13 13 14 14 13 13 14 15 15 15 14 14 14 14 14
2 2 1 1 3 3 2 5 1 4 3 3 5 11 8 5 2 4 4 3 6 2 2 3 1 2 3 4 1 2 1 3 5 6 6 8 8 8 8 7 8 11 9 8 7 8 8 15 14 15 14 15 16 16 15 14 15 15 15 13 11 12 12 13 13 12 12 11 11 14 14 14 13 14 14 14 14 13 13 12 11 11 12 13 13 13 13 13 14 15 15 15 14 14 14 14 14
1 4 2 2 1 1 3 5 4 7 4 4 9 11 12 8 3 2 4 1 1 4 1 2 4 3 2 0 0 1 4 3 5 6 5 6 8 8 8 7 8 9 10 10 8 8 8 9 16 13 13 14 14 15 14 13 13 13 12 11 10 10 11 10 12 12 12 13 12 13 13 13 14 13 13 12 13 14 13 11 10 9 10 12 13 13 13 13 13 14 14 14 13 12 13 13 14
1 1 1 2 2 5 4 2 4 7 7 4 5 6 1 1 3 2 3 5 4 2 3 2 3 4 3 1 0 1 2 6 3 3 4 5 7 7 7 7 8 7 9 10 9 7 7 8 9 13 13 12 12 14 13 12 12 12 12 11 11 11 11 11 11 12 13 11 12 12 12 13 13 12 10 12 13 13 12 10 9 8 8 11 12 12 12 12 12 12 13 12 12 12 12 13 14
3 2 5 3 2 1 1 1 5 3 4 5 4 2 0 3 3 4 3 4 4 4 1 5 5 2 3 2 1 2 5 3 4 3 4 6 6 7 7 7 7 8 8 8 9 8 7 6 8 8 11 15 12 12 12 12 12 12 12 12 12 12 12 11 11 12 12 12 12 13 13 13 12 12 11 11 12 13 12 9 8 7 8 10 11 11 11 11 12 12 12 12 12 12 12 11 13
3 5 5 3 1 2 3 3 1 2 4 4 2 5 4 0 2 5 8 6 2 1 2 3 2 2 2 2 1 4 3 5 5 3 4 6 6 8 8 7 7 7 7 8 8 8 7 7 7 8 8 7 7 9 10 11 10 11 11 11 12 12 12 12 11 11 11 11 11 11 13 13 12 12 11 10 12 13 11 9 7 6 7 9 10 10 10 11 11 11 11 12 12 12 12 12 13
1 2 2 2 0 0 3 2 2 3 5 1 3 4 6 2 2 3 6 8 2 0 2 2 2 1 2 5 2 2 5 6 7 5 7 7 8 8 8 7 7 7 7 8 8 8 8 8 8 7 7 7 6 6 6 9 13 12 12 12 12 12 12 12 12 11 13 13 13 13 13 13 12 12 11 12 12 11 11 8 6 5 7 9 10 9 9 10 10 10 12 12 11 11 12 13 14
3 4 2 1 2 3 4 2 1 1 6 1 4 5 3 3 1 2 1 2 4 1 1 2 5 1 1 4 0 6 11 10 7 7 8 11 9 8 8 7 6 6 6 7 8 7 7 8 7 7 7 7 6 5 6 6 11 12 12 13 13 12 11 12 13 13 13 13 14 13 13 11 11 9 13 10 13 11 10 7 6 4 6 8 9 9 8 9 9 11 12 12 12 11 12 15 15
2 3 0 2 3 3 3 3 4 2 6 4 3 7 4 2 1 1 1 3 11 1 3 3 3 3 2 1 5 12 12 10 9 9 9 9 8 7 6 6 6 6 6 7 6 7 8 8 8 6 7 7 7 6 5 5 8 12 10 12 13 11 11 13 13 13 11 11 11 10 8 5 5 5 7 5 10 7 8 8 6 5 5 7 8 8 8 8 9 11 12 12 12 10 10 14 15
1 2 5 1 4 3 4 5 6 1 1 4 7 3 2 1 1 1 3 8 5 4 6 4 4 5 4 4 9 11 12 12 10 11 10 10 8 8 7 8 8 8 7 7 7 7 7 7 8 7 7 7 7 5 4 4 5 8 6 6 6 8 9 10 8 5 8 4 9 8 5 5 5 5 6 7 4 6 8 8 6 5 5 6 7 7 7 8 9 11 11 11 12 10 9 7 8
2 2 3 7 4 6 5 3 5 0 4 4 5 5 1 3 4 1 3 0 2 4 3 3 3 5 9 10 11 12 13 11 10 9 13 13 10 10 8 8 7 7 7 6 6 7 6 6 7 7 7 7 7 6 5 5 6 5 5 5 6 7 7 6 4 5 4 5 5 5 5 5 5 5 5 6 6 9 8 8 7 5 5 6 6 6 6 7 9 10 11 11 11 11 7 6 6
4 5 3 7 5 4 5 4 4 3 3 8 9 3 3 2 1 0 2 3 2 4 4 1 2 3 6 8 11 12 12 11 9 9 12 12 10 11 9 8 8 8 7 6 6 5 6 6 7 7 7 8 6 6 5 6 6 5 5 5 5 5 5 5 5 5 5 5 6 5 5 6 5 5 9 12 10 6 6 7 7 5 5 6 6 4 4 7 10 10 9 8 8 5 6 6 6
2 2 4 4 3 2 3 4 8 9 3 4 4 1 1 3 2 1 6 4 1 3 6 7 10 9 9 10 11 10 11 11 10 9 10 11 9 6 4 5 5 5 4 6 4 5 7 6 7 7 8 7 7 6 6 6 6 6 5 5 5 4 4 5 5 5 5 6 5 5 5 5 5 5 4 4 3 5 5 4 3 3 4 4 5 3 3 4 4 4 4 5 5 6 7 6 6
3 6 4 4 0 2 6 5 7 4 2 2 4 5 1 1 1 4 5 4 3 5 6 6 7 13 14 14 12 10 11 12 11 11 11 10 9 8 6 7 6 5 5 7 4 6 6 6 6 6 7 7 7 6 5 7 8 6 6 5 5 4 5 4 4 4 4 5 5 5 6 5 5 4 5 4 3 3 4 4 4 3 3 4 3 3 3 4 4 4 5 5 5 5 6 6 6
4 2 3 5 4 6 1 1 4 0 2 2 1 2 1 2 1 1 3 2 1 1 1 7 8 10 9 10 13 12 11 12 11 11 11 9 8 7 8 6 8 6 5 5 6 4 6 6 7 6 5 6 7 6 5 6 5 5 4 5 5 5 5 5 5 4 4 4 5 5 5 5 5 5 5 5 4 3 4 4 3 3 3 2 3 3 3 3 3 4 5 4 4 5 6 6 6
2 4 0 3 5 8 5 7 8 6 0 7 1 4 5 3 0 1 1 3 3 3 4 10 12 10 11 12 11 13 13 11 10 8 8 7 8 7 7 7 5 5 6 4 7 4 8 5 7 7 5 7 6 6 5 4 4 5 6 8 6 7 6 5 5 5 4 4 4 4 5 4 4 4 4 6 4 3 4 3 3 2 2 2 2 3 2 2 2 3 5 4 4 4 6 5 5
4 4 3 4 3 5 5 6 7 6 7 6 3 6 11 1 2 3 2 3 3 6 8 11 11 11 9 9 11 9 8 7 8 8 6 4 5 7 6 6 6 7 8 6 6 4 8 7 7 8 7 7 6 6 6 4 6 5 7 6 6 8 5 5 5 5 5 5 3 3 5 5 5 4 5 5 4 4 3 3 3 2 2 1 2 2 2 1 1 3 5 4 4 5 5 5 5
5 6 2 2 5 4 5 6 7 6 5 2 4 9 9 2 5 1 4 4 4 8 10 10 11 10 9 9 9 9 8 7 7 7 7 6 8 9 8 7 7 8 9 7 9 6 6 8 8 9 8 7 7 7 6 6 8 7 7 7 6 5 4 5 6 5 5 6 6 6 6 6 6 5 6 5 6 5 4 4 4 3 3 2 2 3 2 2 2 3 4 4 5 5 5 5 5
4 5 5 5 7 4 4 3 5 1 3 1 3 5 4 6 2 4 1 3 7 9 10 10 10 11 9 8 7 7 7 8 7 6 6 5 7 9 8 7 8 7 8 8 7 7 6 8 9 7 6 7 7 7 6 6 7 6 6 5 5 5 4 4 4 5 5 5 6 7 6 7 7 6 6 6 5 5 5 5 4 3 3 3 3 2 1 2 1 3 2 4 5 5 4 4 5
3 3 0 4 5 4 6 4 10 0 4 5 7 6 1 2 2 3 3 4 6 13 11 12 10 9 8 7 7 6 7 5 5 6 9 9 6 7 8 9 8 7 9 9 7 7 8 10 8 8 8 7 7 8 6 6 6 5 5 4 5 6 6 5 4 4 5 6 6 7 6 6 6 6 7 6 6 6 5 5 4 4 4 4 3 2 1 0 1 2 3 5 5 6 5 4 4
1 3 3 5 4 4 2 5 4 5 4 4 6 1 3 0 5 2 3 4 4 10 12 11 11 8 7 6 6 6 7 5 5 6 5 3 4 4 7 4 8 8 5 8 8 9 11 9 7 8 9 8 8 7 7 6 5 5 6 5 6 6 6 5 5 5 6 6 6 6 6 6 6 7 6 7 8 6 5 5 5 5 5 4 3 3 3 2 2 2 4 5 6 6 6 5 4
1 2 2 3 4 4 3 2 1 4 3 7 6 2 6 7 5 2 2 4 6 7 9 11 9 8 7 7 7 7 6 6 8 5 4 5 6 6 7 5 6 8 7 6 7 10 8 6 7 8 9 9 9 8 8 7 6 6 5 5 5 6 5 5 4 5 5 5 5 5 5 6 6 6 7 7 7 6 6 6 6 5 4 4 3 3 3 3 3 3 4 5 5 6 6 6 6
4 1 3 1 0 3 2 0 1 4 2 7 3 4 7 8 5 6 4 5 10 8 8 11 10 8 8 7 7 8 8 8 7 4 4 6 6 6 6 5 6 7 6 7 11 10 8 8 7 7 8 8 9 8 8 7 7 6 5 5 5 6 5 5 5 4 4 4 4 5 6 6 6 6 6 7 6 6 6 5 5 3 2 3 3 3 4 3 3 4 4 5 5 6 6 5 6
2 3 3 3 3 5 7 3 3 5 1 2 3 0 7 7 8 5 7 10 8 9 9 9 9 9 9 8 8 8 8 7 5 4 4 6 6 6 7 8 7 8 10 10 8 7 9 8 8 6 7 8 8 8 8 8 8 7 6 6 6 6 6 5 6 6 7 6 6 6 6 7 7 6 6 6 6 6 6 5 4 0 4 2 3 4 4 5 4 4 3 6 6 5 7 5 4
4 3 2 0 1 5 3 1 2 3 0 1 2 4 2 1 5 2 1 4 7 9 9 8 10 11 10 9 9 7 6 6 7 6 4 6 5 6 6 8 9 10 8 8 9 8 8 8 8 7 8 8 7 8 7 7 7 7 7 6 6 6 6 5 4 6 5 6 7 6 5 5 5 7 7 7 7 6 5 5 6 5 2 2 3 4 5 5 6 5 4 3 5 5 6 6 5
1 2 3 2 2 1 2 5 0 2 2 1 2 1 4 0 3 1 4 7 7 6 7 6 7 8 9 8 8 8 7 8 10 4 6 5 4 4 6 8 9 8 7 8 9 10 10 7 6 7 7 7 6 7 7 7 6 6 5 5 5 6 6 6 6 6 7 7 6 5 4 4 4 5 6 7 6 6 5 7 7 7 4 2 3 4 4 4 5 6 6 3 4 6 6 6 6
3 0 3 1 1 1 1 1 2 2 3 1 1 1 7 1 2 3 6 8 9 11 11 9 9 8 8 8 8 9 7 9 11 4 8 8 8 8 8 7 6 6 5 6 6 5 3 5 5 6 7 7 5 5 4 4 4 4 4 5 6 5 5 6 6 6 4 2 3 3 5 5 6 6 5 6 6 5 6 7 7 5 5 4 3 4 5 5 5 5 7 5 5 4 6 6 7
6 6 4 3 1 0 1 4 4 1 1 1 3 4 8 3 3 3 4 4 6 3 1 2 2 4 6 8 8 8 7 10 3 7 8 10 8 7 6 6 5 4 3 3 4 4 5 5 5 5 5 6 5 5 5 4 4 5 5 4 6 7 7 7 7 6 4 4 3 4 5 5 5 6 6 6 6 6 7 7 7 4 4 5 5 6 5 5 7 7 7 8 9 7 6 6 7
6 4 6 1 0 4 4 4 5 0 1 2 4 5 6 1 1 4 7 6 4 3 3 4 4 5 7 7 8 8 7 1 4 5 6 2 3 2 4 4 4 4 4 5 6 7 7 7 7 7 6 7 7 7 6 7 6 6 6 7 8 7 7 6 7 5 4 4 4 4 4 4 5 6 6 6 6 6 7 7 6 5 4 3 5 6 6 5 5 6 6 5 9 9 6 6 7
5 6 2 1 1 2 3 2 1 2 1 3 2 5 2 3 2 7 6 5 1 1 2 1 1 4 1 1 0 2 2 2 3 3 2 2 4 4 3 4 5 8 7 7 9 10 9 8 8 8 7 7 8 9 8 8 8 8 7 7 6 6 7 7 6 4 4 4 4 4 3 3 5 5 2 2 4 6 7 7 7 7 7 5 3 3 5 5 7 7 7 6 4 8 6 8 8
3 4 3 1 2 4 8 3 2 1 2 5 2 2 4 4 5 6 9 4 2 6 2 2 3 3 2 3 4 3 2 2 3 4 2 2 2 4 4 4 6 9 8 9 9 9 8 7 7 8 7 8 7 8 8 8 7 7 7 6 8 5 5 5 3 4 5 6 6 5 5 6 3 2 1 4 7 4 6 6 7 7 7 8 6 5 6 7 7 8 8 8 7 3 4 5 8
5 4 3 4 3 1 2 2 3 1 1 2 2 6 3 8 2 4 8 7 4 9 7 7 4 3 4 4 6 5 4 4 4 5 4 3 5 6 6 6 8 8 8 7 8 8 6 6 6 6 6 5 5 6 7 6 6 5 5 6 7 6 4 4 5 6 7 7 5 5 6 5 4 5 5 8 6 4 6 3 3 5 6 7 7 6 6 6 7 7 7 7 8 9 6 6 3
1 4 3 2 1 2 5 4 5 2 1 3 5 6 4 9 7 8 7 4 11 13 12 13 10 7 1 3 4 7 8 7 6 5 4 5 6 8 9 9 8 8 9 10 9 8 6 5 2 2 1 1 1 4 4 2 3 2 3 3 4 3 3 5 6 5 7 8 7 5 7 5 6 5 5 6 5 5 6 6 5 4 5 5 6 6 7 7 7 7 8 8 9 9 8 6 6
1 4 6 6 2 3 1 3 7 8 1 4 3 3 2 6 5 8 9 11 13 10 14 14 13 9 6 4 2 1 1 2 5 6 6 6 6 6 8 9 9 8 8 9 6 2 1 4 6 4 3 3 2 1 0 1 2 3 4 5 6 5 4 6 7 7 6 8 9 8 8 6 5 5 7 6 4 7 8 7 6 6 5 5 5 5 6 6 7 8 8 8 8 7 9 9 6
3 5 8 5 5 2 1 1 1 2 1 0 1 4 3 4 9 10 8 7 9 11 14 11 11 9 7 6 5 4 3 0 0 0 0 2 4 5 6 8 5 4 4 8 10 12 14 11 5 1 0 0 1 1 1 1 2 3 4 3 2 4 5 3 3 4 6 5 5 7 8 7 7 8 9 7 6 6 5 7 9 8 8 7 5 5 5 7 8 8 7 7 7 7 7 10 10
3 2 9 6 4 4 4 2 4 4 2 2 4 2 7 1 5 3 5 7 11 13 13 12 9 9 9 8 8 7 6 5 1 1 1 1 2 5 2 11 13 10 9 12 11 8 4 1 3 2 2 0 1 1 1 1 2 3 2 2 1 2 3 2 2 2 3 4 5 6 6 6 6 7 7 5 6 6 8 9 7 7 7 6 6 7 6 6 5 5 7 6 5 6 9 9 8
4 3 9 9 9 6 4 4 3 2 0 5 4 1 4 1 1 4 5 6 11 12 11 10 10 9 9 9 8 8 8 7 5 3 1 0 1 9 13 10 9 8 8 7 4 4 4 3 3 2 0 3 3 2 1 2 2 1 2 1 0 2 2 2 1 1 2 4 5 4 6 6 6 7 5 6 8 8 8 8 8 7 6 6 6 5 5 6 7 6 7 7 7 6 6 5 7
5 5 4 5 5 4 4 4 3 1 2 4 2 1 3 0 2 4 3 4 7 6 7 8 8 10 10 10 10 9 8 8 7 8 8 8 10 9 6 7 8 6 5 5 6 5 5 5 5 3 2 2 3 3 2 2 3 2 1 1 1 3 3 2 1 2 2 3 5 5 5 6 6 6 5 8 7 7 8 7 8 8 7 7 6 6 5 6 7 7 7 8 8 7 5 6 7
6 6 6 5 7 4 3 6 2 4 0 5 3 2 3 1 0 1 2 1 3 2 3 5 7 8 9 9 10 9 8 8 7 8 9 9 8 9 6 8 5 6 6 6 6 5 5 4 4 4 3 3 3 3 4 3 1 2 1 2 4 3 2 2 4 4 4 4 5 5 6 6 5 5 5 5 5 7 7 7 7 7 7 7 7 7 7 7 7 8 7 7 8 8 7 6 5
5 3 4 6 3 5 3 2 4 3 2 5 2 1 3 4 0 1 2 4 6 5 4 6 7 8 8 8 8 9 9 8 8 7 8 9 10 9 7 4 6 5 6 7 7 6 6 4 4 5 3 2 1 2 3 4 2 3 7 8 7 3 4 7 8 7 6 6 6 5 4 4 5 4 5 3 3 5 5 6 7 6 6 7 7 7 6 6 6 7 6 6 6 7 6 6 5
6 5 8 8 1 2 1 1 3 3 5 1 1 2 2 3 1 1 4 5 5 4 4 5 6 7 7 8 8 6 6 8 9 9 9 9 9 9 8 7 6 6 5 5 5 5 5 6 7 7 7 5 3 0 1 3 4 8 8 10 11 12 13 9 5 4 5 6 5 4 4 5 4 4 4 6 7 8 6 6 6 7 6 6 6 6 6 7 7 7 8 8 7 8 8 8 7
6 7 7 7 4 3 3 2 0 3 3 2 1 2 3 1 2 0 2 4 3 4 4 5 6 7 8 9 9 10 9 9 8 9 10 11 10 8 7 6 5 5 5 5 5 5 6 7 7 6 4 3 3 3 1 5 6 9 9 8 9 9 5 5 8 8 9 8 7 6 6 6 5 6 6 6 5 5 5 6 6 6 6 6 6 7 7 8 7 7 7 7 8 7 6 8 8
9 4 9 7 7 5 3 3 5 6 6 1 3 1 2 5 2 2 4 2 3 5 6 6 8 8 8 9 10 11 11 10 9 10 10 10 10 11 10 8 6 5 4 4 4 6 5 5 5 5 5 3 3 1 3 5 7 8 7 7 7 5 5 8 9 10 8 7 6 7 7 5 6 6 7 7 7 7 6 4 4 6 6 6 6 6 6 7 7 6 6 7 6 6 7 7 6
0 4 6 6 7 6 3 6 5 3 3 2 4 0 1 1 1 1 2 4 6 7 8 8 9 7 8 9 10 10 9 9 10 10 11 12 11 12 11 10 9 8 8 6 5 3 4 5 5 5 5 4 2 0 5 7 8 4 1 4 4 2 5 7 6 2 4 7 7 7 6 5 5 5 5 5 5 6 7 7 5 3 4 5 6 7 7 7 7 7 6 6 7 5 7 8 7
4 4 4 5 2 10 6 2 2 4 6 1 1 0 1 1 3 2 4 6 6 7 7 7 7 8 8 9 9 9 8 8 8 9 9 10 11 11 9 9 9 10 10 11 10 8 7 6 6 5 5 5 4 2 4 7 8 4 4 6 3 4 7 9 6 5 7 6 5 5 5 6 5 5 5 5 5 6 6 6 7 8 5 6 6 6 7 7 7 7 6 7 7 6 7 8 6
7 3 7 2 3 5 7 4 1 3 5 1 1 2 3 4 2 5 4 6 7 7 8 8 8 8 8 8 8 8 8 7 9 9 8 9 10 10 9 8 9 10 9 9 10 8 7 6 6 7 7 7 6 4 3 5 5 5 7 8 9 9 8 7 3 4 4 3 3 3 3 5 7 7 6 6 6 7 6 7 7 7 7 5 6 6 6 7 7 6 7 7 7 7 6 5 5
9 9 7 6 1 1 3 6 1 2 1 1 1 2 2 2 1 5 8 8 7 7 8 8 8 7 7 8 9 9 10 10 10 10 10 10 9 10 9 9 9 10 10 9 9 9 9 8 8 9 10 10 8 5 4 6 8 6 6 9 9 9 7 5 3 3 3 4 3 3 5 7 6 6 6 5 6 7 7 6 6 6 5 5 3 5 5 6 6 6 6 6 6 6 7 6 5
5 6 4 1 5 3 4 4 5 7 3 3 2 1 4 4 3 5 6 7 7 8 8 7 7 8 7 8 8 9 8 8 8 9 9 8 8 9 9 10 11 11 11 10 10 9 11 10 10 10 10 9 9 9 5 5 7 6 3 2 7 6 3 4 5 6 7 9 10 9 8 7 7 6 6 7 7 7 7 7 6 6 6 6 6 7 7 6 7 7 7 6 6 6 7 6 5
3 4 0 1 3 2 6 2 2 4 6 5 5 1 5 5 3 2 4 6 7 8 8 7 6 8 8 8 8 8 8 9 9 9 9 9 8 9 9 9 10 9 9 9 9 9 8 8 10 10 10 10 9 9 8 6 5 4 6 6 7 5 0 2 6 7 7 6 5 6 8 8 6 7 7 7 7 7 8 7 7 7 8 8 7 6 5 6 6 6 5 6 6 6 6 5 5
9 8 7 9 7 5 4 3 2 3 4 4 6 5 5 6 1 2 4 7 8 7 10 8 8 7 7 7 8 8 8 9 9 9 9 8 8 9 8 9 9 9 10 11 10 9 10 10 9 9 9 9 10 10 10 9 7 5 4 5 8 5 2 6 10 7 5 8 8 7 7 6 8 7 7 8 8 7 7 6 7 6 7 7 7 7 6 6 6 6 5 4 6 6 6 5 5
Wind_Direction
222 358 313 58 51 125 47 2 177 307 73 254 326 184 261 228 282 336 284 349 27 303 274 304 247 8 199 197 167 136 160 118 190 129 213 237 346 133 126 111 120 130 141 141 139 136 136 137 135 136 135 130 125 123 123 123 122 122 122 122 124 126 126 126 126 125 125 126 123 123 123 121 123 122 121 120 119 118 119 118 116 115 115 115 114 111 106 104 100 95 91 89 90 88 87 89 87
90 34 55 38 294 42 242 121 98 347 35 16 244 128 249 255 78 216 249 222 220 108 305 92 82 79 65 81 100 141 67 193 211 230 274 6 58 91 127 125 130 141 144 139 132 131 133 137 136 136 136 129 126 126 126 124 122 122 122 123 126 126 126 126 126 125 127 125 124 124 123 124 123 120 118 116 115 116 118 119 117 116 116 116 115 111 106 103 102 100 97 93 89 86 85 85 86
27 49 21 39 16 82 86 38 258 65 139 243 271 208 319 297 211 261 241 249 256 228 277 42 79 54 44 37 28 40 238 291 138 126 302 69 120 136 120 130 135 140 138 131 128 129 131 138 136 135 133 129 127 125 125 124 121 123 124 124 125 125 125 126 125 127 128 128 127 125 125 125 120 119 119 117 116 116 116 117 116 116 117 119 120 112 111 108 103 101 101 93 91 88 84 80 76
66 61 161 72 241 26 66 29 82 134 141 213 299 262 207 196 251 222 259 270 257 262 315 312 39 299 109 70 171 90 11 325 162 137 147 135 84 127 125 126 121 126 127 128 128 128 135 141 137 133 132 129 127 124 124 122 123 123 123 123 123 125 125 125 125 127 129 129 127 126 126 125 123 121 117 114 115 118 118 115 116 118 115 110 106 109 112 110 109 106 102 99 94 88 81 76 73
58 310 108 99 112 316 110 164 146 110 208 193 195 268 230 215 235 87 275 283 272 211 195 341 63 338 154 134 167 141 236 195 15 159 78 68 91 117 119 118 118 124 122 123 123 131 143 141 135 133 132 128 128 127 126 125 124 125 125 126 124 125 127 127 127 128 129 129 128 127 125 125 122 118 115 114 113 114 115 116 118 116 116 113 110 112 111 110 110 109 106 101 95 86 81 76 75
56 33 348 99 285 180 58 76 44 201 229 149 234 255 225 224 235 221 290 281 290 243 178 105 169 195 13 282 161 83 313 112 288 162 110 23 120 115 115 115 120 122 119 118 126 135 142 136 134 133 133 132 132 130 128 126 127 127 129 126 127 126 128 128 130 128 127 130 129 126 124 125 122 119 116 115 114 112 111 112 113 115 114 115 117 117 115 114 113 111 106 98 90 83 78 79 85
253 44 354 28 18 57 178 147 204 209 263 168 227 270 268 225 219 336 339 341 312 65 63 108 119 109 69 297 38 111 51 353 111 334 74 127 115 114 119 120 125 124 118 122 129 136 137 133 132 135 136 135 134 132 128 129 129 132 131 130 128 129 128 129 128 127 128 129 128 127 126 125 124 119 116 113 114 115 117 118 117 115 114 116 117 117 119 117 115 110 102 95 89 85 84 88 91
101 120 276 107 222 43 125 191 253 160 274 175 245 276 292 285 289 350 14 11 301 19 10 103 15 99 246 357 162 310 31 16 24 98 113 121 120 120 124 132 129 129 128 124 132 136 137 133 136 140 136 136 134 129 132 132 133 134 134 131 130 132 133 128 126 126 127 128 128 127 125 125 124 120 120 118 117 119 121 120 119 114 113 114 115 118 119 119 114 108 103 98 92 88 88 90 92
347 88 298 81 170 44 51 230 256 228 278 278 270 243 266 270 281 267 269 216 305 221 141 165 289 72 221 84 196 318 31 4 57 96 111 119 124 127 129 132 134 133 131 133 136 140 134 140 139 139 139 138 134 130 134 137 136 136 135 136 139 136 132 130 129 124 125 126 127 127 126 127 122 121 122 120 122 123 123 120 112 110 108 109 112 115 116 115 111 108 104 100 97 94 94 94 97
40 93 261 157 122 221 16 296 158 242 235 245 267 281 276 267 250 170 242 310 223 141 198 70 23 142 138 164 4 13 0 29 77 78 97 111 114 110 116 121 130 132 129 132 136 132 139 142 140 137 137 137 136 133 138 142 139 138 137 139 137 134 134 130 126 126 124 122 121 128 126 126 125 124 124 127 128 126 121 111 107 106 107 108 110 112 112 111 109 108 105 102 100 98 98 102 105
171 11 149 101 47 199 215 271 267 301 263 301 289 257 254 277 228 236 196 196 173 157 239 135 28 114 95 134 71 125 121 80 91 102 91 107 108 116 117 123 130 136 136 137 132 134 144 139 138 133 134 134 134 137 141 141 138 135 133 129 126 123 122 120 124 123 124 126 126 128 127 127 128 128 127 128 126 122 113 106 104 104 105 107 110 112 113 110 107 105 103 103 102 99 100 107 112
57 96 39 105 189 162 232 202 267 273 293 303 277 283 291 198 139 185 198 157 180 118 180 148 203 154 81 61 249 105 89 68 70 77 72 91 101 105 116 118 124 130 134 134 130 131 132 138 134 135 131 131 134 138 140 136 132 129 128 128 126 124 122 122 120 123 127 127 130 128 129 129 130 129 128 126 123 119 110 105 103 102 101 104 108 112 113 110 108 107 107 107 104 99 99 112 124
122 108 86 100 222 150 209 283 258 276 327 281 232 291 44 127 188 193 133 109 102 104 306 213 162 110 121 188 172 150 135 105 96 79 70 94 104 105 106 109 119 126 131 129 127 126 126 123 131 127 135 136 137 137 136 133 132 132 133 132 129 127 127 125 127 127 129 131 132 135 132 130 131 132 126 124 124 114 106 105 104 101 97 101 106 111 114 114 112 111 109 105 97 93 96 110 131
117 179 131 217 75 158 150 237 277 338 293 255 270 280 299 277 277 162 129 91 111 137 284 159 122 135 66 17 216 160 161 117 111 95 88 95 102 107 114 116 117 125 127 126 123 122 117 123 124 127 130 125 134 130 126 124 124 126 128 127 127 128 129 129 129 130 130 133 134 135 135 133 132 130 127 125 116 105 106 104 102 100 95 98 106 111 115 114 113 109 103 94 89 88 94 110 123
185 155 84 114 120 59 245 170 221 160 264 267 288 327 342 11 100 55 110 114 11 162 111 42 173 14 232 143 266 154 144 131 114 117 103 100 100 110 118 116 121 123 124 122 127 126 125 122 120 119 124 126 125 121 124 133 135 137 136 133 132 132 131 133 134 136 140 140 140 139 136 133 131 131 133 122 113 111 111 107 103 96 94 97 104 112 114 113 110 105 97 88 85 86 92 112 122
154 84 87 139 236 174 269 190 212 114 263 240 276 341 347 0 66 88 255 162 152 0 19 199 15 128 258 185 14 126 124 124 122 117 113 114 111 114 121 126 128 124 124 127 131 121 120 119 117 121 125 127 125 119 126 131 138 137 136 136 134 136 135 136 141 144 147 147 145 142 141 139 136 137 130 123 119 118 114 113 112 98 91 90 102 108 113 113 108 101 94 91 90 89 99 113 121
75 80 45 49 253 156 254 177 147 211 254 275 306 31 18 317 334 111 5 80 122 80 71 16 333 348 217 67 110 118 119 123 126 119 116 124 128 129 128 137 136 129 133 135 126 127 124 128 128 128 130 128 125 119 114 117 137 135 132 137 139 138 139 144 148 151 150 151 146 139 122 107 119 127 124 130 127 122 121 123 122 107 90 88 93 106 114 110 105 100 97 95 96 96 105 118 122
82 139 114 192 203 166 210 196 190 191 268 299 337 4 42 298 0 144 56 44 72 68 50 354 19 33 16 73 102 117 120 129 135 133 134 135 140 137 139 150 146 153 140 137 131 128 132 136 136 130 129 124 122 114 106 114 118 120 124 136 138 142 141 149 146 147 147 138 146 133 120 120 115 119 132 133 125 132 128 130 130 116 98 89 86 90 105 108 103 100 98 98 97 98 93 106 115
135 110 116 212 200 238 163 203 226 308 270 279 291 315 158 240 139 211 87 352 36 55 23 25 27 40 62 78 108 120 128 140 145 145 146 144 146 145 148 149 151 146 145 139 130 130 134 130 131 129 127 123 117 113 117 109 111 120 125 133 140 143 148 139 131 132 110 134 122 124 122 119 126 130 128 140 143 146 139 139 137 129 108 94 93 93 95 101 100 97 100 98 93 93 96 106 112
221 118 191 235 214 248 215 212 251 206 263 302 313 319 359 264 241 298 130 144 67 156 151 7 176 156 102 112 123 133 141 151 153 149 148 154 153 152 148 134 133 146 148 135 134 122 126 132 129 126 127 126 123 123 122 126 136 137 141 133 132 134 129 133 127 126 127 133 137 130 133 137 128 137 149 147 146 133 139 138 141 137 114 100 81 62 64 82 87 92 95 86 87 87 105 113 112
260 136 186 229 226 224 261 190 236 256 235 273 270 356 308 285 223 99 146 87 305 265 225 167 188 175 140 137 139 144 149 159 156 151 154 159 147 136 114 109 115 101 119 116 119 130 127 127 130 132 134 136 135 139 143 146 146 146 141 134 133 132 130 132 134 128 136 132 131 131 130 123 124 127 127 109 102 141 133 117 113 83 82 71 82 64 54 56 64 81 73 69 79 97 108 121 122
115 207 189 204 163 223 253 243 242 233 207 229 337 342 281 303 27 110 121 128 228 209 218 194 169 157 153 150 153 155 161 167 164 161 164 159 147 135 119 114 103 103 122 136 127 128 123 128 136 135 139 142 145 151 154 155 152 150 146 142 138 136 135 129 120 126 126 126 126 134 128 132 130 121 118 127 135 142 127 115 121 126 84 98 84 90 52 50 62 77 93 82 79 93 114 129 133
225 315 243 233 220 249 270 302 238 120 338 260 348 261 3 351 190 234 134 171 224 249 163 153 147 153 145 141 150 162 173 174 168 169 164 161 148 138 138 140 145 144 141 127 138 124 132 118 131 137 135 145 150 158 154 154 149 139 135 147 147 148 145 136 135 127 129 136 143 140 139 140 136 137 143 142 148 145 123 121 144 142 131 122 98 106 67 50 66 75 81 87 91 101 112 123 128
154 242 271 282 222 241 269 280 296 305 293 278 175 311 318 258 48 159 236 258 302 306 116 113 128 135 142 151 170 173 178 173 165 165 165 165 156 141 136 137 128 125 136 143 133 141 148 136 133 146 157 156 159 156 152 138 129 139 154 163 158 164 157 147 136 144 140 141 143 120 130 127 131 134 145 156 164 139 134 144 141 134 133 122 116 110 102 38 64 77 90 93 100 109 118 124 126
182 237 225 260 216 242 266 268 286 284 277 264 338 328 281 152 260 127 256 337 16 72 97 110 127 133 147 159 169 177 175 161 159 154 146 132 121 116 111 116 130 143 154 156 155 149 153 155 150 156 170 155 150 147 148 146 146 157 165 172 168 169 158 150 146 146 142 131 114 159 144 143 142 146 158 166 161 157 141 145 147 158 145 165 114 95 117 117 69 77 91 111 119 115 120 126 127
202 217 198 260 266 283 278 298 279 280 297 295 358 289 286 258 213 127 266 60 101 101 98 117 128 135 153 170 178 180 181 173 158 157 159 136 131 126 137 143 149 157 167 153 161 179 157 167 175 167 169 156 153 154 158 174 165 173 174 176 167 157 146 151 152 157 151 149 165 163 158 154 157 156 165 162 172 171 158 149 151 170 184 214 164 174 161 149 192 86 95 112 110 112 120 139 128
181 195 213 223 257 314 305 231 289 348 230 180 239 273 291 339 358 293 285 148 120 100 111 129 136 146 159 170 183 194 192 186 171 152 134 141 145 143 149 149 158 160 156 170 166 172 168 173 185 176 158 158 159 166 165 185 170 176 174 157 150 141 146 145 166 163 155 160 168 167 162 163 159 167 166 170 181 169 169 163 166 160 181 218 220 192 183 165 99 98 142 131 107 102 109 131 127
153 157 134 269 294 280 253 307 273 337 291 193 186 248 348 328 59 220 209 180 144 125 134 140 146 152 164 171 187 200 213 189 170 167 177 166 160 147 151 160 161 156 165 174 177 171 178 186 178 172 175 170 168 166 167 170 172 162 158 154 150 149 156 164 169 168 169 177 178 176 171 165 164 167 162 164 178 173 178 171 160 166 200 206 199 173 151 84 113 152 108 90 92 99 106 104 124
208 143 274 286 352 320 263 211 256 152 247 163 161 60 329 345 219 258 224 155 141 133 144 146 154 159 163 176 191 210 218 195 188 196 184 122 107 134 151 163 157 163 181 173 175 177 189 182 166 174 176 172 172 168 169 173 169 155 157 167 154 156 155 144 164 181 183 188 189 179 164 167 171 167 165 164 173 179 181 175 176 193 197 194 178 158 147 100 91 85 70 86 89 98 105 106 93
85 54 150 317 0 331 286 269 313 138 253 135 141 255 271 255 236 314 241 143 115 126 141 154 157 161 167 182 200 216 222 215 213 195 159 138 147 150 150 164 167 169 170 176 173 193 185 171 176 179 178 174 174 171 168 170 166 155 165 164 149 151 145 140 165 185 189 187 193 180 169 172 175 174 163 165 162 176 185 184 184 189 190 176 133 145 166 165 145 101 90 87 93 103 112 123 129
188 254 63 194 14 271 285 79 208 144 171 164 135 200 278 267 302 247 229 187 153 161 167 162 165 163 174 187 200 212 221 224 218 171 154 129 143 149 151 160 177 176 169 177 191 191 179 180 178 182 175 174 170 168 170 170 164 160 161 159 148 159 151 153 179 186 163 185 188 193 180 181 178 174 174 162 167 173 178 171 178 154 174 151 151 184 172 177 150 123 122 96 86 96 108 125 137
24 102 287 325 151 276 297 312 163 171 14 100 96 89 236 274 265 275 202 174 174 169 176 174 165 168 180 188 201 209 222 227 226 192 156 126 136 150 159 174 186 185 186 190 192 180 187 185 181 171 169 175 170 171 172 169 167 161 164 165 161 163 172 170 166 176 183 179 191 196 190 183 179 176 172 166 167 181 174 168 116 271 223 125 134 166 158 167 140 112 100 127 112 106 115 114 121
354 126 252 171 144 251 349 160 326 199 350 35 150 201 326 328 306 303 213 209 186 176 186 180 168 173 177 191 198 205 214 236 241 214 134 114 126 151 173 182 195 195 191 188 189 188 193 187 178 170 170 174 168 170 165 163 158 160 166 174 180 163 176 187 182 197 192 183 190 193 192 189 185 175 171 172 173 180 172 118 91 225 194 107 150 151 165 155 145 127 104 94 117 134 125 123 120
294 7 163 213 164 261 191 309 316 24 109 265 8 194 231 206 311 89 182 185 190 205 198 187 177 173 182 186 196 202 201 219 237 213 102 98 113 162 194 201 201 197 202 197 194 191 193 176 173 170 169 172 167 167 164 163 159 149 155 171 193 189 191 186 201 204 203 195 184 181 178 189 199 204 173 170 176 176 137 109 167 199 150 143 146 142 146 137 136 134 118 86 117 129 135 133 129
186 225 74 57 355 239 252 85 236 35 12 200 0 211 270 241 299 241 200 196 195 204 198 187 177 172 178 190 197 204 198 209 232 77 107 120 152 180 193 205 213 208 206 203 201 204 161 158 155 171 165 166 162 149 139 133 128 125 134 177 204 217 209 195 205 214 221 205 174 168 186 197 204 202 190 172 167 156 117 139 189 164 154 152 161 144 139 137 128 122 125 114 89 99 131 134 129
158 148 155 133 81 247 250 247 278 81 345 332 188 222 257 179 251 262 265 273 234 238 76 113 143 176 181 192 201 203 199 218 108 108 132 178 167 171 183 183 210 212 205 199 197 197 187 158 151 163 157 159 152 150 144 145 145 153 154 181 212 223 217 206 207 214 188 198 188 194 204 206 209 203 199 177 163 143 138 159 188 148 150 161 169 160 158 157 144 126 127 127 118 113 115 125 125
125 96 106 145 149 278 283 262 253 203 93 250 213 235 245 75 198 275 313 316 294 265 193 158 168 181 193 199 203 208 207 195 109 150 195 150 116 134 174 174 183 185 188 187 193 203 194 175 161 167 163 157 160 165 172 168 169 175 183 193 205 211 211 201 205 198 180 180 192 213 211 197 215 216 207 173 167 153 144 152 160 142 128 200 186 183 165 145 127 124 121 120 128 123 128 133 126
136 115 108 116 169 279 233 255 31 303 116 279 266 204 289 353 348 358 353 33 357 312 288 319 215 208 225 193 225 347 353 17 131 210 204 152 146 192 171 167 171 185 197 190 197 204 196 175 170 164 165 170 174 179 182 185 185 187 183 192 194 207 213 210 206 185 151 123 107 209 203 239 226 221 191 110 191 155 131 147 156 157 158 179 240 176 132 124 128 129 130 108 100 132 142 150 142
77 153 145 100 277 249 287 271 0 344 86 259 269 103 4 1 43 36 35 4 340 349 312 105 81 50 73 107 109 119 182 185 197 217 187 187 149 152 167 176 201 208 198 197 205 207 197 181 175 169 177 178 183 185 184 192 195 194 188 182 188 190 191 195 173 130 128 120 164 191 183 210 216 257 82 174 212 154 146 156 165 160 162 166 177 169 143 146 149 151 149 138 133 96 127 151 158
114 96 102 203 234 47 308 294 339 15 169 260 136 96 18 347 299 62 46 29 3 12 37 49 29 125 138 149 152 154 188 201 205 208 173 140 140 157 169 196 209 206 200 199 207 208 196 192 182 170 180 185 188 194 196 198 189 190 191 171 174 185 171 144 133 124 123 117 191 208 204 189 178 179 149 200 198 163 94 93 149 162 160 186 170 160 159 161 149 152 143 143 140 140 152 168 173
342 136 139 142 208 226 162 259 317 349 31 77 81 61 8 8 8 0 3 29 41 23 29 24 13 358 30 118 148 165 180 197 205 216 169 144 156 174 188 203 204 207 200 200 203 198 195 191 146 116 152 233 220 208 203 164 136 137 148 136 134 125 118 144 143 150 143 157 176 216 224 175 168 171 178 202 162 109 141 159 168 176 163 186 175 166 169 174 167 162 156 151 167 155 159 164 192
299 234 174 188 176 182 289 337 17 17 345 349 123 49 41 313 3 11 348 19 34 31 41 31 21 17 10 40 41 355 194 208 201 203 188 162 165 168 194 205 209 213 208 209 207 192 74 51 51 46 23 353 337 342 1 164 175 161 158 164 173 175 176 169 176 162 147 166 186 191 218 198 150 162 198 192 152 137 165 151 161 167 166 180 184 180 159 151 163 165 174 171 169 177 155 162 170
146 256 188 180 168 145 139 326 59 338 88 244 91 128 144 313 23 355 353 16 38 42 44 36 31 30 28 26 17 14 8 0 14 2 138 155 168 187 209 217 234 267 344 17 23 29 30 17 17 31 349 86 355 350 348 353 270 239 206 204 219 209 205 204 158 163 174 171 155 168 184 178 166 182 200 177 162 152 141 143 182 171 168 178 170 165 172 174 174 176 167 173 179 154 148 165 172
205 243 169 162 125 168 212 148 158 226 256 308 43 115 134 108 356 340 306 25 37 37 37 39 38 37 35 33 35 31 28 27 34 115 127 153 206 216 250 23 17 13 41 52 47 67 113 192 269 266 281 40 93 184 246 295 262 265 244 241 273 295 285 297 210 196 166 151 158 166 166 163 169 186 202 179 138 157 161 167 179 185 179 164 176 181 179 173 163 161 176 162 152 170 170 169 165
218 209 162 162 173 185 139 152 174 231 348 278 324 326 75 91 263 311 333 38 30 40 35 37 40 39 37 37 32 34 37 39 43 60 65 30 313 26 35 38 25 10 62 109 180 163 163 158 197 209 160 48 22 354 282 267 263 290 284 270 111 23 28 7 0 354 156 150 160 166 174 168 179 194 185 173 162 173 183 170 173 192 184 179 191 186 175 164 169 166 164 162 180 180 184 163 156
269 157 78 86 78 75 129 138 130 325 70 271 277 11 118 319 283 3 315 36 40 43 35 33 31 32 25 20 20 23 28 30 29 27 25 28 39 63 64 60 39 19 5 29 38 39 23 353 350 7 44 81 52 26 0 304 273 269 276 0 52 53 55 34 152 234 208 173 184 185 180 174 174 182 169 192 152 153 192 162 174 184 186 187 196 195 173 162 164 175 188 183 175 171 171 164 179
152 112 80 41 46 57 31 67 100 73 1 260 236 351 126 137 210 245 30 80 251 40 45 32 37 43 43 35 29 25 20 22 25 27 30 30 40 58 63 43 42 25 14 41 46 37 19 345 338 1 39 59 50 19 3 346 296 284 350 65 47 61 97 171 190 214 215 214 208 197 191 187 181 178 159 203 164 156 189 167 172 185 186 185 189 184 183 176 179 184 186 179 171 170 171 172 164
116 108 119 84 21 21 28 342 33 114 266 260 294 200 103 170 2 245 49 47 39 49 54 43 42 44 47 45 40 32 30 30 31 32 29 28 29 33 36 38 38 22 29 21 22 26 22 350 346 351 1 30 58 27 45 9 37 68 69 69 64 6 252 206 200 204 204 223 230 221 202 188 196 175 164 174 148 164 177 184 174 181 189 189 189 185 178 174 170 174 174 183 178 175 166 167 167
86 87 98 123 217 53 225 10 183 165 182 338 334 29 37 50 214 239 45 62 61 56 58 62 60 56 56 58 52 37 27 34 36 39 39 39 37 31 30 26 30 26 23 24 18 17 11 7 10 11 358 353 335 334 81 65 70 100 144 162 178 199 203 197 188 205 216 230 234 235 212 210 199 188 169 169 189 175 182 192 183 182 192 197 185 174 171 161 172 178 180 183 176 173 177 175 172
121 134 144 124 139 139 174 272 267 318 289 260 334 348 95 290 304 221 74 72 32 100 81 67 64 62 64 61 50 39 33 30 31 35 39 40 39 40 30 11 13 18 4 6 7 10 4 1 356 359 342 345 329 294 154 101 130 168 191 187 198 215 210 158 191 200 212 210 210 224 222 216 204 197 179 184 180 181 194 196 190 191 195 188 182 176 172 175 176 173 175 178 180 182 169 178 185
185 141 150 169 138 152 167 176 166 195 189 284 299 83 221 140 226 72 84 153 149 110 101 68 55 46 44 51 52 44 35 25 20 27 28 29 29 31 28 27 23 12 9 7 4 356 346 345 342 336 329 347 5 5 156 175 193 203 210 224 213 212 182 193 196 205 205 208 209 217 223 218 209 201 185 175 177 172 168 178 200 198 195 188 180 175 171 174 174 171 178 183 178 168 177 176 181
39 153 68 110 210 145 128 202 147 175 115 48 1 85 303 133 267 170 174 161 105 96 81 71 64 56 50 52 50 46 40 32 25 24 22 20 22 22 22 19 18 16 10 16 19 9 339 332 324 316 302 294 262 109 121 171 207 193 272 267 269 255 216 220 223 144 189 205 207 209 223 219 221 208 207 185 179 178 175 166 168 223 232 205 189 179 174 172 172 173 176 176 177 165 167 177 180
204 96 164 210 170 107 93 57 52 96 65 45 325 301 242 260 231 138 192 124 121 106 91 82 75 64 54 50 46 43 38 31 27 26 25 20 18 16 14 12 10 11 9 6 2 358 353 338 328 316 305 287 268 232 167 181 199 142 184 231 240 224 225 224 219 191 195 201 199 202 206 212 217 215 206 198 183 178 174 170 173 172 195 229 198 188 177 173 171 168 171 173 174 166 164 176 168
92 134 220 164 123 114 125 172 345 57 146 210 13 195 148 149 195 154 180 150 139 114 108 93 70 59 53 46 41 33 23 17 20 19 19 21 17 9 6 7 9 8 4 359 359 352 352 349 340 342 334 327 311 298 231 226 230 194 189 214 216 212 215 231 231 205 203 196 207 202 200 205 209 208 199 197 187 181 170 176 176 175 172 185 222 186 179 172 163 166 171 177 172 159 155 148 168
159 185 155 120 192 207 341 96 132 127 116 156 331 303 255 201 224 159 192 164 147 118 94 69 54 50 47 40 35 28 23 19 15 11 9 10 3 359 359 0 359 6 2 356 352 349 349 353 354 353 348 340 332 309 256 241 239 227 205 206 214 221 211 195 184 205 201 210 220 210 214 219 209 202 195 190 186 175 165 170 179 165 153 149 208 210 178 164 162 160 167 160 158 156 150 154 164
32 99 100 44 102 147 129 196 164 112 179 84 292 255 214 223 222 182 175 156 137 108 83 75 65 60 51 42 31 29 22 15 10 9 6 1 357 357 359 359 1 359 357 350 347 349 352 350 350 346 341 343 339 334 301 266 273 287 289 256 243 240 207 199 206 196 195 195 194 200 204 208 204 190 193 185 188 177 170 170 170 165 152 141 179 191 176 161 160 168 156 156 162 154 151 155 157
52 57 116 41 36 212 101 28 86 164 161 166 144 238 262 253 235 170 174 141 129 115 109 82 64 54 52 47 38 29 23 14 10 3 359 354 354 358 359 2 2 359 353 349 346 344 343 344 345 341 337 335 337 330 325 312 287 269 273 271 266 249 144 282 250 230 228 231 218 192 195 198 174 186 179 182 185 179 172 176 172 163 154 156 179 163 160 154 154 151 161 155 156 152 153 148 147
158 154 182 158 119 109 130 231 27 77 107 176 133 220 270 271 180 299 155 138 123 114 112 100 71 58 52 45 37 33 23 16 7 359 350 347 353 357 359 3 2 1 354 348 342 341 348 348 340 336 337 337 337 332 329 323 317 297 265 224 253 269 133 191 221 227 218 224 212 201 192 176 186 181 176 179 185 179 167 182 172 157 154 155 165 159 152 155 154 151 155 152 152 154 146 141 148